Wind_Speed
20 22 23 25 20 13 11 10 10 9 9 9 8 9 9 9 10 13 16 10 8 12 6 3 6 5 9 20 20 20 2 6 5 10 7 16 10 14 13 28 11 13 33 40 38
21 22 24 24 22 14 14 13 11 10 9 8 7 7 8 9 11 15 7 10 10 9 8 3 6 7 12 20 18 9 2 4 6 6 7 12 5 6 11 26 32 29 35 39 40
21 22 23 24 24 15 16 13 10 9 8 8 8 6 7 7 8 4 1 8 9 10 9 7 14 15 17 21 27 10 1 5 8 12 9 5 9 16 17 8 34 39 41 42 41
21 22 23 24 25 15 16 12 9 7 6 6 7 7 6 3 3 4 3 5 9 9 10 7 7 17 9 7 21 3 9 10 7 7 5 3 3 16 16 7 28 41 44 42 38
21 22 23 24 25 15 15 13 8 8 6 4 5 7 5 3 6 3 1 4 8 11 14 5 12 15 9 11 19 5 4 11 10 10 4 4 12 13 6 13 25 36 40 41 36
21 22 23 24 24 16 16 13 7 7 5 1 3 7 4 4 4 5 1 4 8 11 8 6 11 15 14 15 8 13 7 9 8 7 3 4 6 15 1 22 18 32 37 39 37
21 21 22 23 24 16 17 12 3 4 4 2 4 6 6 7 4 4 3 4 6 9 8 5 9 14 20 11 14 14 5 8 11 11 4 2 8 5 7 21 23 12 13 30 33
21 21 21 22 23 17 15 8 2 2 3 1 4 4 5 3 7 2 5 6 3 3 10 12 10 11 18 19 20 10 5 3 7 8 7 7 3 5 25 26 20 17 10 7 13
21 21 20 20 21 14 12 9 4 2 1 1 4 4 8 8 14 8 8 9 6 8 8 8 9 12 17 7 7 6 8 6 5 3 3 6 6 7 25 28 23 23 21 13 11
21 21 20 18 18 10 12 8 3 1 3 5 5 6 9 10 11 12 8 8 8 8 7 8 6 4 5 2 5 6 7 8 8 6 3 5 8 6 25 29 25 22 21 18 15
22 21 19 16 12 8 11 5 5 1 7 11 10 7 3 10 8 14 10 6 8 7 6 17 3 7 13 10 3 7 7 7 5 7 5 4 8 9 18 26 24 28 25 20 16
22 21 19 14 6 4 7 9 6 5 11 18 24 22 7 11 8 9 12 9 8 8 10 4 9 11 3 4 4 7 8 7 1 9 7 5 6 9 8 18 28 28 27 24 18
21 21 19 13 2 4 6 6 9 9 5 12 20 21 11 9 14 17 17 16 9 8 11 9 8 4 2 5 5 4 5 4 3 6 3 4 7 7 8 25 28 32 32 27 22
20 20 18 13 2 5 4 8 10 7 2 6 12 12 20 13 9 16 17 16 7 10 9 5 5 5 5 6 1 7 9 9 9 8 3 3 5 5 10 9 13 25 26 22 20
19 19 14 15 11 3 7 11 11 3 3 12 9 6 22 14 8 18 15 16 13 11 1 8 3 7 3 4 7 3 7 7 7 7 4 10 0 2 13 10 14 20 30 29 25
18 17 16 12 11 0 10 13 8 1 6 10 9 7 9 17 12 21 17 15 11 7 8 7 4 3 3 5 4 4 6 8 7 4 3 15 8 2 9 12 10 20 28 24 20
17 15 17 13 6 1 5 11 0 4 9 8 9 10 10 9 12 10 7 6 4 2 6 9 10 7 5 4 6 6 4 4 6 5 3 10 5 6 6 14 16 16 24 18 23
18 16 13 11 7 4 7 3 4 9 9 7 10 13 10 11 12 13 10 7 10 9 5 5 9 10 6 5 1 3 3 4 2 3 6 7 3 4 14 22 27 29 20 19 19
19 14 15 8 4 3 7 3 6 5 13 10 5 3 10 13 11 10 11 12 10 11 9 2 2 11 8 5 6 3 3 4 2 4 3 4 5 8 13 10 18 19 20 20 18
21 16 13 9 8 5 2 5 6 10 14 9 5 4 4 7 6 7 5 6 8 3 10 2 2 3 6 9 1 5 4 4 4 2 5 5 2 5 6 7 7 10 13 16 14
15 10 3 14 10 8 4 6 9 23 1 4 6 9 10 9 9 4 10 9 9 6 10 5 4 8 6 3 8 0 1 4 4 4 1 3 2 5 7 8 7 9 22 20 15
6 3 12 9 6 6 6 7 8 16 6 1 3 8 8 10 9 7 4 4 12 10 9 3 3 2 9 8 8 2 8 5 5 6 2 2 5 8 9 8 18 17 18 13 10
16 8 6 10 3 6 12 18 23 8 6 3 4 6 9 6 5 6 6 9 14 7 3 5 2 2 8 8 6 3 2 5 1 3 5 4 5 3 7 8 18 17 13 12 8
7 4 9 13 14 8 9 12 15 11 3 11 7 9 7 6 6 5 5 5 18 9 8 6 2 4 5 5 6 5 8 4 7 3 5 6 5 9 6 9 14 17 15 10 8
3 3 9 4 4 11 7 10 10 9 9 4 4 6 8 5 7 6 7 5 11 12 5 5 2 3 5 9 10 9 10 10 7 6 4 7 6 2 7 8 14 15 12 11 10
6 8 12 15 15 9 9 5 8 13 5 5 7 8 8 4 5 6 6 6 6 2 5 4 3 3 5 7 9 12 12 12 12 10 9 9 5 9 16 15 14 12 11 10 10
9 13 7 11 9 7 6 7 12 11 16 14 6 3 13 9 16 17 18 14 6 6 5 6 3 2 3 6 9 7 7 10 11 9 6 2 5 6 8 12 16 18 10 13 8
Wind_Direction
7 5 2 0 357 354 347 333 317 305 297 294 290 285 284 279 271 261 253 240 231 238 262 262 357 338 279 260 264 264 314 288 49 41 10 29 28 360 64 137 175 160 147 152 151
5 3 2 1 359 352 345 330 314 302 293 286 282 281 282 285 281 268 257 220 236 246 239 210 244 260 259 268 264 217 173 322 58 52 26 354 12 300 59 91 92 110 136 148 155
3 2 1 0 358 349 347 340 329 314 292 275 272 278 289 302 304 311 249 210 228 242 227 208 270 286 278 284 276 262 245 328 36 56 30 310 329 69 67 78 130 135 143 151 158
1 360 360 359 357 350 350 347 343 335 318 282 257 256 270 275 29 322 327 217 229 212 197 205 257 273 280 272 289 198 329 319 21 0 16 25 5 72 63 61 142 147 150 155 161
357 357 358 358 357 352 349 347 337 339 327 292 248 224 234 270 275 316 315 229 203 189 175 208 255 267 269 301 323 335 343 14 355 58 16 1 75 88 57 81 133 147 152 159 165
354 354 355 355 357 351 347 344 329 345 354 339 194 191 191 264 266 262 216 199 184 180 165 223 256 271 293 289 291 295 16 313 283 127 227 152 112 92 77 86 81 149 159 166 170
350 351 352 352 354 352 343 339 324 354 17 77 152 171 206 271 266 187 148 140 134 159 187 216 276 299 303 308 308 308 305 267 250 189 196 80 78 119 107 89 73 70 126 168 177
346 347 349 350 350 349 348 1 345 349 8 106 152 190 255 187 212 251 124 116 153 324 276 289 311 267 282 286 294 296 273 269 193 192 153 109 141 102 99 93 77 50 105 89 103
342 343 344 348 347 351 355 356 312 267 301 166 129 314 288 209 193 215 219 214 194 236 254 266 307 283 276 271 294 272 253 174 176 140 133 125 144 120 114 106 100 84 79 73 45
337 338 340 344 345 353 353 338 348 235 268 213 215 296 220 215 198 202 203 234 218 231 225 231 240 230 285 266 256 307 340 126 146 181 123 34 142 120 125 118 114 102 89 77 56
334 335 335 339 345 347 14 12 353 290 245 215 291 226 178 214 165 194 195 225 232 245 228 218 182 234 239 214 329 337 347 358 78 118 100 299 155 149 129 124 123 119 113 98 79
330 331 332 336 340 8 11 18 4 325 295 262 257 257 213 170 179 200 187 208 220 242 242 275 234 253 347 35 12 331 316 307 148 125 104 277 274 166 134 142 140 132 126 121 106
329 328 330 335 294 359 336 357 352 327 265 285 228 234 202 191 235 196 183 217 249 236 243 221 248 123 14 320 258 302 305 24 28 359 355 216 287 129 123 119 128 133 132 124 119
327 325 330 338 272 323 22 349 331 324 299 248 185 213 211 208 246 219 185 207 223 233 271 216 116 43 339 288 12 70 8 8 353 6 281 66 278 144 142 136 127 128 130 131 132
324 321 323 320 306 299 13 343 327 299 319 144 173 209 173 188 189 163 178 223 258 290 327 261 162 147 243 8 57 326 12 329 295 284 291 283 126 204 139 149 136 134 135 137 136
319 316 309 305 291 353 347 329 307 345 247 171 141 171 165 210 253 159 172 223 281 299 313 259 292 77 354 34 38 348 300 295 273 213 269 255 184 240 166 168 134 130 134 142 145
316 305 293 286 204 311 341 323 256 227 148 155 167 166 190 189 240 147 182 197 216 247 268 282 246 179 159 17 302 215 10 342 352 0 229 284 70 182 177 148 141 134 135 145 144
317 303 281 277 268 247 343 330 248 269 263 196 163 163 183 204 215 179 171 200 217 229 263 255 318 147 133 193 69 327 112 147 298 330 291 345 354 220 101 103 123 132 135 131 128
321 307 278 202 100 115 273 254 225 201 340 345 126 195 202 203 210 183 186 197 221 202 184 240 58 71 150 128 118 356 352 248 16 314 11 250 42 64 112 120 134 124 104 105 110
329 322 287 172 188 207 224 251 297 317 293 2 355 331 264 273 226 155 181 213 231 205 108 54 56 252 198 97 149 180 222 15 340 289 277 326 79 157 104 114 114 120 125 127 110
333 328 116 144 177 219 221 251 277 286 166 28 327 315 304 310 318 209 207 220 259 124 94 68 97 298 111 174 212 324 192 241 141 112 207 356 290 136 124 127 136 93 96 98 87
353 280 163 178 186 210 227 249 260 291 128 114 271 275 294 308 327 314 334 77 15 132 129 111 124 229 227 297 315 173 187 140 113 301 302 151 270 140 156 153 112 109 105 99 90
337 277 242 201 228 236 259 260 260 243 296 284 267 232 279 290 327 338 17 69 50 52 58 337 333 5 330 333 339 275 179 106 111 135 234 155 259 183 108 93 127 126 130 120 105
327 292 248 231 229 265 297 292 294 184 226 297 336 338 336 288 274 320 323 136 85 104 91 63 12 157 195 227 285 303 309 197 187 154 227 217 237 311 77 90 75 81 103 93 78
271 278 8 346 350 330 306 273 318 309 156 194 285 270 290 312 334 295 291 117 123 156 130 111 186 310 307 305 304 308 312 317 309 238 210 248 274 277 107 97 78 62 53 46 46
312 358 332 305 312 311 301 326 313 308 332 245 199 255 269 309 334 332 25 347 203 179 133 155 224 252 274 291 299 292 285 283 275 278 285 282 271 131 96 83 64 43 27 2 87
350 353 331 299 315 321 279 287 296 281 289 291 346 6 48 25 355 330 314 313 39 136 155 153 142 99 253 337 335 310 284 286 287 271 237 85 138 112 82 79 74 60 47 88 60
Height
1521 1517 1514 1509 1505 1502 1500 1498 1496 1495 1494 1493 1493 1493 1492 1491 1491 1490 1490 1492 1493 1496 1497 1499 1499 1498 1498 1496 1495 1491 1504 1505 1489 1485 1484 1476 1476 1473 1472 1478 1481 1481 1487 1499 1509
1521 1517 1513 1509 1505 1502 1500 1497 1495 1493 1493 1492 1492 1491 1491 1490 1489 1487 1488 1488 1491 1494 1495 1497 1497 1497 1495 1491 1490 1489 1497 1488 1478 1477 1481 1479 1477 1476 1477 1479 1483 1489 1495 1502 1510
1521 1517 1513 1509 1504 1501 1498 1495 1493 1491 1490 1490 1490 1490 1490 1489 1488 1484 1484 1486 1489 1492 1494 1496 1496 1495 1493 1489 1483 1480 1488 1478 1477 1478 1479 1479 1478 1475 1477 1482 1484 1489 1497 1503 1509
1520 1516 1512 1508 1504 1500 1498 1494 1492 1490 1489 1488 1488 1489 1489 1490 1490 1485 1484 1485 1487 1490 1492 1495 1494 1493 1490 1489 1481 1481 1477 1477 1476 1477 1478 1477 1476 1478 1480 1482 1483 1488 1493 1502 1509
1519 1515 1511 1508 1503 1499 1497 1494 1492 1490 1488 1487 1487 1488 1489 1489 1486 1485 1485 1485 1486 1489 1492 1493 1493 1491 1490 1484 1479 1476 1476 1476 1477 1477 1478 1478 1479 1480 1483 1484 1485 1490 1495 1500 1506
1518 1514 1510 1506 1502 1498 1496 1493 1491 1489 1488 1487 1487 1487 1489 1490 1485 1485 1485 1485 1486 1489 1491 1492 1491 1491 1487 1483 1482 1476 1476 1478 1477 1477 1478 1479 1481 1482 1484 1485 1489 1493 1495 1497 1501
1517 1513 1509 1505 1501 1497 1494 1492 1491 1490 1489 1487 1487 1488 1490 1487 1485 1485 1485 1486 1487 1489 1489 1490 1491 1491 1488 1484 1477 1476 1480 1477 1475 1476 1476 1478 1485 1485 1485 1486 1491 1495 1497 1500 1503
1516 1512 1508 1505 1500 1497 1493 1491 1490 1490 1489 1489 1489 1490 1486 1486 1485 1485 1486 1486 1488 1490 1490 1491 1491 1490 1489 1485 1479 1480 1479 1495 1474 1472 1474 1479 1499 1483 1484 1487 1493 1498 1499 1501 1510
1515 1511 1507 1504 1499 1496 1493 1492 1490 1490 1490 1490 1491 1491 1487 1485 1486 1486 1486 1487 1489 1490 1490 1490 1490 1489 1487 1489 1494 1483 1500 1489 1481 1469 1472 1478 1493 1483 1484 1487 1494 1499 1502 1503 1504
1513 1509 1506 1502 1499 1496 1493 1491 1490 1490 1490 1490 1490 1493 1485 1482 1483 1485 1486 1487 1489 1488 1490 1490 1489 1490 1487 1495 1518 1495 1486 1480 1485 1475 1471 1482 1487 1481 1484 1486 1494 1499 1503 1506 1507
1511 1507 1504 1501 1498 1495 1493 1491 1493 1492 1490 1483 1483 1477 1476 1480 1483 1484 1486 1487 1487 1487 1489 1486 1494 1499 1487 1482 1475 1476 1480 1482 1472 1470 1475 1481 1488 1482 1483 1486 1493 1498 1503 1508 1511
1509 1505 1502 1499 1497 1495 1494 1493 1494 1495 1488 1480 1479 1478 1480 1479 1482 1483 1485 1487 1485 1489 1483 1489 1497 1477 1471 1470 1475 1479 1484 1485 1472 1469 1475 1481 1485 1478 1478 1484 1489 1496 1503 1508 1512
1507 1503 1500 1497 1495 1495 1493 1495 1493 1492 1489 1474 1472 1474 1476 1479 1478 1479 1482 1484 1483 1484 1481 1489 1479 1471 1471 1474 1478 1481 1487 1484 1485 1475 1474 1481 1492 1487 1481 1483 1489 1496 1501 1506 1510
1504 1501 1498 1495 1496 1493 1492 1493 1492 1492 1496 1471 1468 1471 1474 1476 1475 1474 1477 1480 1478 1480 1475 1474 1470 1472 1475 1477 1474 1498 1477 1479 1482 1492 1515 1481 1527 1493 1484 1487 1489 1494 1499 1504 1509
1502 1499 1498 1495 1493 1492 1493 1493 1492 1491 1518 1461 1464 1465 1469 1473 1467 1470 1474 1478 1479 1476 1474 1482 1474 1475 1479 1478 1474 1486 1478 1483 1484 1495 1496 1493 1512 1494 1482 1492 1491 1494 1499 1503 1507
1499 1497 1494 1494 1492 1492 1490 1490 1491 1502 1509 1463 1459 1464 1468 1469 1468 1470 1473 1475 1474 1474 1471 1471 1468 1469 1473 1472 1474 1476 1481 1484 1484 1495 1523 1489 1500 1505 1493 1485 1490 1492 1495 1499 1503
1495 1493 1490 1490 1490 1490 1490 1488 1500 1507 1449 1459 1462 1460 1466 1470 1468 1467 1473 1478 1487 1494 1494 1476 1471 1466 1470 1479 1476 1479 1496 1531 1532 1530 1526 1485 1489 1490 1474 1476 1480 1488 1494 1498 1502
1491 1489 1487 1487 1487 1488 1489 1490 1505 1468 1458 1442 1448 1454 1467 1463 1464 1464 1471 1482 1474 1477 1489 1498 1501 1468 1468 1478 1485 1485 1493 1530 1540 1541 1524 1480 1498 1491 1472 1478 1485 1491 1495 1498 1502
1487 1485 1482 1483 1485 1487 1490 1501 1484 1464 1455 1452 1445 1456 1463 1455 1457 1461 1467 1471 1466 1467 1492 1487 1489 1466 1469 1471 1479 1488 1505 1489 1511 1504 1523 1503 1488 1483 1480 1485 1487 1491 1494 1498 1502
1485 1480 1477 1479 1483 1487 1489 1491 1472 1461 1456 1454 1465 1456 1466 1458 1460 1459 1462 1456 1459 1456 1458 1471 1496 1471 1469 1471 1476 1482 1482 1514 1517 1535 1536 1514 1500 1509 1492 1491 1489 1490 1492 1496 1499
1486 1483 1476 1477 1483 1486 1492 1479 1466 1459 1454 1460 1464 1467 1464 1463 1458 1458 1460 1452 1450 1454 1457 1465 1482 1488 1475 1482 1487 1487 1496 1494 1503 1515 1534 1539 1522 1487 1490 1487 1488 1489 1493 1495 1497
1487 1485 1478 1479 1482 1479 1481 1472 1463 1458 1457 1459 1461 1463 1465 1461 1463 1458 1457 1454 1451 1453 1466 1464 1479 1500 1489 1472 1469 1469 1484 1491 1525 1524 1517 1521 1524 1480 1482 1482 1485 1490 1492 1494 1496
1490 1484 1475 1477 1483 1478 1469 1466 1460 1457 1458 1459 1460 1459 1459 1463 1472 1458 1454 1456 1455 1460 1472 1471 1489 1510 1500 1486 1473 1477 1473 1478 1489 1502 1520 1533 1527 1481 1482 1484 1486 1488 1491 1493 1496
1495 1485 1473 1472 1472 1473 1474 1467 1461 1452 1457 1459 1461 1458 1460 1462 1458 1462 1459 1458 1460 1464 1467 1469 1483 1498 1519 1504 1491 1492 1483 1478 1489 1514 1512 1511 1500 1488 1489 1489 1490 1491 1493 1494 1496
1496 1485 1483 1477 1472 1473 1469 1465 1462 1460 1455 1459 1462 1463 1465 1471 1467 1466 1459 1460 1464 1466 1468 1474 1493 1486 1487 1485 1484 1486 1485 1482 1489 1491 1502 1497 1492 1484 1489 1489 1490 1491 1492 1493 1494
1498 1495 1488 1485 1477 1474 1469 1466 1465 1459 1460 1461 1463 1461 1462 1469 1468 1473 1467 1466 1463 1466 1469 1472 1493 1484 1492 1484 1485 1488 1483 1482 1481 1480 1482 1482 1485 1481 1483 1484 1486 1489 1489 1491 1492
1500 1498 1496 1486 1480 1478 1471 1468 1466 1462 1458 1458 1458 1460 1469 1470 1468 1467 1465 1463 1464 1465 1472 1478 1485 1493 1503 1489 1491 1502 1487 1483 1479 1474 1474 1487 1486 1480 1482 1484 1486 1488 1489 1491 1491